Location: Chilton Park
(37.7711°N, 100.0276°W)
Time: 03:03:34
(UTC+00:00)

Cosmos 1500 Rocket - Pass Details

Date: 01 July 2022
Orbit: 602 x 631 km, 82.5° (Epoch: 11 August)

Event Time Altitude Azimuth Distance (km) Brightness Sun altitude
Exits shadow 10:34:23 10° 216° (SW) 1,999 5.6 -8.6°
Reaches altitude 10° 10:34:25 10° 216° (SW) 1,986 5.5 -8.6°
Maximum altitude 10:38:28 35° 282° (WNW) 1,018 4.4 -8.0°
Drops below altitude 10° 10:42:33 10° 349° (NNW) 2,013 6.5 -7.3°
Sets 10:44:58 0° 358° (N) 2,928 7.6 -6.9°
